EHI
0 0 0 0 0 0 0 0 0 0 0 0 0 0 0 0 0 0 0 0 0 0 0 0 0 0 0 0 0 0 0 0 0 0 0 0 0 0 0 0 0 0 0
0 0 0 0 0 0 0 0 0 0 0 0 0 0 0 0 0 0 0 0 0 0 0 0 0 0 0 0 0 0 0 0 0 0 0 0 0 0 0 0 0 0 0
0 0 0 0 0 0 0 0 0 0 0 0 0 0 0 0 0 0 0 0 0 0 0 0 0 0 0 0 0 0 0 0 0 0 0 0 0 0 0 0 0 0 0
0 0 0 0 0 0 0 0 0 0 0 0 0 0 0 0 0 0 0 0 0 0 0 0 0 0 0 0 0 0 0 0 0 0 0 0 0 0 0 0 0 0 0
0 0 0 0 0 0 0 0 0 0 0 0 0 0 0 0 0 0 0 0 0 0 0 0 0 0 0 0 0 0 0 0 0 0 0 0 0 0 0 0 0 0 0
0 0 0 0 0 0 0 0 0 0 0 0 0 0 0 0 0 0 0 0 0 0 0 0 0 0 0 0 0 0 0 0 0 0 0 0 0 0 0 0 0 0 0
0 0 0 0 0 0 0 0 0 0 0 0 0 0 0 0 0 0 0 0 0 0 0 0 0 0 0 0 0 0 0 0 0 0 0 0 0 0 0 0 0 0 0
1 0 0 0 0 0 0 0 0 0 0 0 0 0 0 0 0 0 0 0 0 0 0 0 0 0 0 0 0 0 0 0 0 0 0 0 0 0 0 0 0 0 0
4 2 0 0 0 0 0 0 0 0 0 0 0 0 0 0 0 0 0 0 0 0 0 0 0 0 0 0 0 0 0 0 0 0 0 0 0 0 0 0 0 0 0
7 6 3 1 0 0 0 0 0 0 0 0 0 0 0 0 0 0 0 0 0 0 0 0 0 0 0 0 0 0 0 0 0 0 0 0 0 0 0 0 0 0 0
7 8 7 5 2 0 0 0 0 0 0 0 0 0 0 0 0 0 0 0 0 0 0 0 0 0 0 0 0 0 0 0 0 0 0 0 0 0 0 0 0 0 0
3 6 8 8 4 1 0 0 0 0 0 0 0 0 0 0 0 0 0 0 0 0 0 0 0 0 0 0 0 0 0 0 0 0 0 0 0 0 0 0 0 0 0
1 2 4 5 4 2 1 0 0 0 0 0 0 0 0 0 0 0 0 0 0 0 0 0 0 0 0 0 0 0 0 0 0 0 0 0 0 0 0 0 0 0 0
0 0 1 1 2 2 2 1 0 0 0 0 0 0 0 0 0 0 0 0 0 0 0 0 0 0 0 0 0 0 0 0 0 0 0 0 0 0 0 0 0 0 0
0 0 0 0 0 1 2 2 1 0 0 0 0 0 0 0 0 0 0 0 0 0 0 0 0 0 0 0 0 0 0 0 0 0 0 0 0 0 0 0 0 0 0
0 0 0 0 0 0 1 2 1 0 0 0 0 0 0 0 0 0 0 0 0 0 0 0 0 0 0 0 0 0 0 0 0 0 0 0 0 0 0 0 0 0 0
0 0 0 0 0 0 0 1 1 0 0 0 0 0 0 0 0 0 0 0 0 0 0 0 0 0 0 0 0 0 0 0 0 0 0 0 0 0 0 0 0 0 0
0 0 0 0 0 0 0 0 0 0 0 0 0 0 0 0 0 0 0 0 0 0 0 0 0 0 0 0 0 0 0 0 0 0 0 0 0 0 0 0 0 0 0
0 0 0 0 0 0 0 0 0 0 0 0 0 0 0 0 0 0 0 0 0 0 0 0 0 0 0 0 0 0 0 0 0 0 0 0 0 0 0 0 0 0 0
0 0 0 0 0 0 0 0 0 0 0 0 0 0 0 0 0 0 0 0 0 0 0 0 0 0 0 0 0 0 0 0 0 0 0 0 0 0 0 0 0 0 0
0 0 0 0 0 0 0 0 0 0 0 0 0 0 0 0 0 0 0 0 0 0 0 0 0 0 0 0 0 0 0 0 0 0 0 0 0 0 0 0 0 0 0
0 0 0 0 0 0 0 0 0 0 0 0 0 0 0 0 0 0 0 0 0 0 0 0 0 0 0 0 0 0 0 0 0 0 0 0 0 0 0 0 0 0 0
0 0 0 0 0 0 0 0 0 0 0 0 0 0 0 0 0 0 0 0 0 0 0 0 0 0 0 0 0 0 0 0 0 0 0 0 0 0 0 0 0 0 0
0 0 0 0 0 0 0 0 0 0 0 0 0 0 0 0 0 0 0 0 0 0 0 0 0 0 0 0 0 0 0 0 0 0 0 0 0 0 0 0 0 0 0
0 0 0 0 0 0 0 0 0 0 0 0 0 0 0 0 0 0 0 0 0 0 0 0 0 0 0 0 0 0 0 0 0 0 0 0 0 0 0 0 0 0 0
0 0 0 0 0 0 0 0 0 0 0 0 0 0 0 0 0 0 0 0 0 0 0 0 0 0 0 0 0 0 0 0 0 0 0 0 0 0 0 0 0 0 0
Wind_Speed
4 4 4 5 6 6 5 5 5 5 5 4 3 3 4 3 4 6 4 8 9 9 9 8 8 8 9 9 9 9 9 9 10 10 10 11 11 11 12 12 12 12 12
5 4 4 5 5 5 5 5 5 4 4 3 3 3 3 3 4 7 6 6 8 9 9 9 8 8 8 8 8 8 8 8 8 8 9 9 9 10 10 10 11 11 11
6 5 4 4 5 5 5 5 5 4 4 4 4 4 3 3 3 7 7 5 5 7 9 10 9 8 8 7 7 7 7 6 6 6 7 7 7 7 8 8 9 9 10
7 6 5 4 5 4 4 4 3 3 4 4 3 3 3 2 4 5 6 7 5 4 6 10 10 9 8 7 7 7 6 5 4 4 4 4 4 5 6 6 7 8 8
7 6 5 5 6 4 4 4 3 4 4 4 4 4 3 3 3 4 6 7 7 6 5 8 9 8 8 7 6 5 5 4 4 3 2 2 2 4 5 5 6 7 7
7 6 5 6 6 5 5 4 5 4 4 5 3 3 3 4 3 4 4 5 6 8 8 7 5 6 9 8 7 5 5 4 4 3 1 1 2 4 5 6 7 8 8
7 6 5 6 7 7 7 7 5 6 4 4 3 1 1 2 4 4 4 4 6 7 8 9 6 5 5 10 8 7 6 5 4 3 2 2 3 5 6 7 8 9 10
8 7 7 5 6 6 8 8 6 5 4 5 5 4 3 3 4 5 4 5 6 6 7 9 8 7 6 4 7 9 7 5 4 3 3 3 4 6 7 9 10 11 11
10 9 9 7 7 7 8 9 8 9 6 6 5 6 6 7 4 4 6 5 6 5 6 6 7 7 7 6 5 8 8 5 4 3 3 4 5 7 9 10 12 12 12
10 11 10 10 9 7 8 8 9 7 7 6 5 4 3 4 5 3 3 4 6 6 7 6 6 6 6 5 8 11 10 6 5 4 4 5 7 9 11 12 13 13 14
9 10 10 10 10 8 9 9 8 8 7 7 6 4 4 1 2 4 4 4 4 5 6 6 5 5 6 6 6 9 11 8 6 5 5 7 9 11 12 13 14 14 15
4 8 9 9 10 9 9 9 9 9 9 8 7 5 5 4 4 3 3 3 3 3 3 4 5 5 5 5 8 12 11 8 6 6 7 9 10 12 13 14 15 15 16
3 5 6 8 8 8 8 8 8 8 9 9 8 6 6 5 3 3 3 3 2 1 2 2 2 4 4 4 5 12 9 8 8 8 9 10 11 12 13 14 16 16 17
4 4 3 5 6 7 7 7 6 7 6 8 8 7 5 5 3 3 4 5 4 1 1 1 2 3 3 3 6 9 4 8 9 9 10 12 13 13 14 15 16 17 17
4 4 3 2 3 4 5 5 4 5 5 6 6 5 4 3 3 3 3 4 6 6 5 3 2 2 3 3 6 3 1 6 10 11 12 14 14 14 15 16 16 17 18
5 4 3 2 1 1 2 3 3 2 3 3 2 4 3 3 3 3 3 2 3 4 4 3 2 2 3 3 5 2 2 8 12 13 15 15 15 16 16 17 18 18 19
5 5 4 3 2 1 1 2 2 3 3 3 3 4 4 5 4 3 3 3 3 3 4 3 2 2 3 3 2 2 4 5 6 13 15 16 16 16 17 18 18 19 19
6 6 6 5 5 4 4 3 3 3 3 4 4 5 5 5 5 4 4 4 3 3 4 5 3 3 4 4 4 4 5 5 5 11 15 16 16 17 17 18 18 19 19
7 8 8 8 7 7 6 6 5 5 5 4 4 5 5 6 6 4 4 4 3 3 3 4 3 2 2 3 4 4 6 5 6 8 12 13 15 17 18 18 18 18 19
8 9 9 9 9 8 8 8 8 8 7 7 6 5 5 5 5 5 4 4 4 4 3 3 2 2 2 3 3 3 3 3 3 4 7 11 14 17 17 18 18 19 19
9 8 9 9 9 7 7 8 8 8 8 8 7 6 5 6 7 5 4 4 4 3 2 2 2 2 2 2 2 2 2 2 3 3 3 4 5 5 7 14 17 19 19
9 9 9 9 9 8 12 13 10 8 7 7 7 6 6 6 6 6 7 6 4 3 2 2 1 1 2 2 1 0 0 1 3 2 2 5 5 6 6 6 15 20 20
9 9 9 9 10 11 15 15 15 9 8 7 7 6 5 6 7 5 4 3 1 1 2 1 1 1 1 0 1 1 2 3 4 4 4 8 5 7 7 9 18 20 20
8 8 9 9 9 12 16 16 15 9 8 7 6 5 4 3 3 2 1 1 1 1 1 1 1 1 1 1 1 2 3 4 5 4 4 6 6 6 8 6 15 20 20
8 7 7 8 9 9 13 13 11 5 5 4 3 3 3 2 2 3 2 1 2 3 2 1 3 6 8 9 7 2 2 3 5 4 3 3 4 4 6 7 9 14 15
7 6 7 6 6 5 9 10 7 2 2 1 1 1 4 4 4 5 4 3 2 2 4 4 5 6 5 6 9 4 3 3 3 4 2 2 3 4 6 4 3 4 7
Wind_Direction
185 186 182 175 183 182 182 180 206 191 182 185 201 178 172 195 134 125 125 128 134 141 142 141 136 129 122 115 107 99 91 86 81 76 71 66 60 57 54 51 47 44 40
184 195 194 185 190 185 175 180 201 187 175 171 180 191 193 181 143 135 135 132 140 148 154 153 146 140 133 125 117 108 98 90 84 78 72 66 59 53 50 48 44 40 35
189 192 203 193 190 186 183 181 196 182 168 163 178 192 192 187 163 138 148 143 140 150 161 162 157 151 145 136 128 119 108 98 91 84 75 66 56 47 42 38 35 31 27
203 192 196 201 187 182 186 185 187 169 162 161 177 192 183 173 177 158 151 151 153 153 163 165 165 162 155 147 140 133 124 115 105 96 82 65 47 33 26 22 17 15 12
211 201 195 195 182 184 193 192 184 169 171 178 187 179 179 174 197 175 159 160 160 157 152 161 156 160 162 159 154 148 145 141 136 124 100 59 23 4 358 356 354 352 351
219 214 201 195 181 184 195 195 187 184 177 175 173 164 189 183 193 187 181 168 159 160 156 155 149 162 169 170 170 170 170 171 171 170 172 328 334 337 336 334 334 333 332
222 222 219 203 190 192 196 195 182 189 187 149 121 141 273 234 209 196 193 176 171 168 162 165 169 168 177 184 181 183 187 190 194 200 219 276 308 317 318 318 318 318 317
218 220 222 218 205 199 199 199 188 178 182 163 147 140 205 258 258 219 197 191 182 175 173 175 176 170 173 168 186 185 189 193 203 218 241 278 300 309 311 309 309 308 307
213 214 219 220 216 208 209 206 198 185 188 193 181 163 172 205 213 230 213 196 186 181 183 177 180 173 170 162 169 180 178 185 207 231 261 287 300 304 304 304 304 304 304
211 210 212 215 219 216 214 212 207 196 176 190 221 231 205 161 161 198 236 211 194 188 185 187 182 174 165 150 160 166 171 179 203 231 264 286 296 300 302 303 303 303 302
212 209 209 212 216 217 216 214 212 203 194 186 194 202 227 256 179 151 194 210 208 204 187 181 173 168 159 146 148 163 169 181 204 233 263 282 292 298 301 302 303 302 301
229 213 208 209 213 215 216 216 216 210 206 200 195 189 180 189 203 185 170 178 197 209 181 165 164 157 153 148 159 163 172 187 213 240 266 283 294 301 304 304 301 298 296
268 235 212 209 211 215 214 212 215 217 211 208 204 200 197 200 182 191 173 148 137 109 110 105 126 132 139 125 143 163 179 201 226 249 270 287 299 303 302 299 297 295 293
294 286 243 219 212 209 209 209 215 219 214 215 215 202 196 197 178 180 174 149 139 125 99 127 66 94 109 111 157 166 193 222 243 261 277 290 296 297 296 294 293 292 291
304 311 307 270 234 212 205 200 216 219 213 215 213 198 182 170 161 157 154 162 162 174 192 169 146 110 110 105 157 160 204 250 261 269 277 285 288 288 288 288 289 289 288
329 338 344 335 311 230 197 190 200 204 197 198 179 167 158 146 139 136 143 142 152 158 164 165 165 136 132 158 182 189 257 271 276 278 280 282 284 285 286 287 288 287 286
349 354 356 2 17 48 97 136 147 148 160 144 132 145 143 133 133 129 126 130 133 130 144 149 148 149 160 180 205 242 252 254 262 270 278 283 286 288 289 289 288 287 285
13 16 24 31 40 47 56 76 94 103 122 128 123 125 131 129 126 126 129 130 127 117 139 152 163 168 186 196 210 233 249 253 250 270 279 284 286 289 289 289 288 287 285
27 32 39 42 44 46 52 58 70 74 79 92 109 123 128 130 127 124 123 122 118 104 94 130 140 153 184 201 211 234 244 251 257 270 281 289 293 294 293 292 291 289 287
37 42 47 49 49 51 55 60 67 71 73 73 78 91 106 122 127 125 119 117 115 107 97 109 123 161 194 200 197 224 249 249 263 275 288 292 294 298 299 299 297 294 290
43 46 52 53 51 54 61 71 74 78 80 80 76 76 87 109 125 123 125 124 124 118 124 139 166 182 199 201 209 211 235 278 284 275 276 283 291 287 291 292 294 291 288
46 50 55 58 59 63 75 80 82 76 78 80 78 69 73 78 100 108 124 134 147 146 160 168 177 204 233 227 185 125 18 325 297 293 308 289 281 279 276 267 284 289 290
56 57 60 65 68 71 76 79 80 75 73 69 67 64 62 57 53 48 66 78 81 242 207 166 193 255 283 112 95 333 279 263 258 266 291 287 276 275 273 280 290 293 295
60 61 61 62 67 70 75 79 80 74 73 69 64 61 68 65 56 41 32 59 318 294 263 164 159 273 310 284 227 244 253 274 273 272 271 278 279 276 283 278 288 291 294
66 62 62 62 64 65 71 75 77 72 77 76 72 60 54 64 39 11 13 8 328 317 311 292 279 284 286 285 276 264 278 294 294 287 255 263 284 295 285 274 281 292 298
76 77 73 69 70 68 68 68 70 73 80 85 100 91 59 45 20 16 21 9 351 10 13 349 320 306 295 285 284 248 205 227 264 290 284 297 300 329 307 279 265 283 291